CW0565 Weather Reports


time (UTC)temp
C
wind
direction
speed
KPH
gust
KPH
rain 1hr
cm
rain 24hr
cm
rain mn
cm
humidity
%
barometer
mb
20260906211511 12 237 1.6 3.2 0.00 0.10 0.10 95 1016.3
20260906210010 12 238 0.0 6.4 0.00 0.10 0.10 94 1016.2
20260906204510 12 237 1.6 4.8 0.03 0.10 0.10 94 1016.3
20260906203009 12 237 0.0 1.6 0.05 0.10 0.10 93 1016.4
20260906201517 12 236 0.0 0.0 0.08 0.10 0.10 92 1016.7
20260906200010 12 237 0.0 4.8 0.08 0.10 0.10 92 1017.1
20260906194509 12 237 0.0 0.0 0.08 0.08 0.08 91 1017.2
20260906193010 12 237 0.0 0.0 0.05 0.05 0.05 90 1017.4
20260906191509 12 238 0.0 1.6 0.03 0.03 0.03 89 1017.4
20260906190010 12 236 0.0 3.2 0.03 0.03 0.03 88 1017.5
20260906184509 12 237 0.0 1.6 0.00 0.00 0.00 87 1017.7
20260906183013 12 237 0.0 3.2 0.00 0.00 0.00 87 1017.8
20260906181525 12 237 0.0 3.2 0.00 0.00 0.00 86 1018.0
20260906180009 12 237 0.0 0.0 0.00 0.00 0.00 85 1018.0
20260906174508 12 237 0.0 3.2 0.00 0.00 0.00 85 1017.9
20260906173009 12 237 0.0 1.6 0.00 0.00 0.00 85 1018.2
20260906171509 12 236 0.0 4.8 0.00 0.00 0.00 84 1018.3
20260906170010 12 237 3.2 6.4 0.00 0.00 0.00 83 1018.5
20260906164518 13 237 4.8 8.0 0.00 0.00 0.00 80 1018.7
20260906163014 13 236 6.4 14.5 0.00 0.00 0.00 76 1018.9
20260906161509 14 219 8.0 16.1 0.00 0.00 0.00 68 1018.9
20260906160010 15 195 3.2 12.9 0.00 0.00 0.00 66 1018.9
20260906154509 15 248 4.8 12.9 0.00 0.00 0.00 64 1018.9
20260906153010 15 244 9.7 14.5 0.00 0.00 0.00 63 1018.9
20260906151509 15 246 9.7 24.1 0.00 0.00 0.00 62 1019.0
20260906150015 15 264 14.5 20.9 0.00 0.00 0.00 58 1019.0
20260906144509 15 231 6.4 29.0 0.00 0.00 0.00 55 1018.9
20260906143009 16 234 14.5 27.4 0.00 0.00 0.00 56 1018.9
20260906141509 16 248 20.9 33.8 0.00 0.00 0.00 54 1019.1
20260906140017 16 271 14.5 24.1 0.00 0.00 0.00 54 1019.0
20260906134510 16 221 11.3 27.4 0.00 0.00 0.00 52 1019.0
20260906133009 15 240 11.3 30.6 0.00 0.00 0.00 52 1019.0
20260906131510 16 215 9.7 25.7 0.00 0.00 0.00 52 1019.1
20260906130015 16 335 8.0 30.6 0.00 0.00 0.00 50 1019.2
20260906124509 16 241 14.5 29.0 0.00 0.00 0.00 50 1019.3
20260906123027 16 287 11.3 27.4 0.00 0.00 0.00 49 1019.1
20260906121509 16 281 14.5 30.6 0.00 0.00 0.00 50 1019.0
20260906120009 16 268 14.5 24.1 0.00 0.00 0.00 52 1019.1
20260906114511 17 279 11.3 19.3 0.00 0.00 0.00 51 1019.0
20260906113012 16 248 8.0 24.1 0.00 0.00 0.00 54 1019.0
20260906111509 16 219 12.9 29.0 0.00 0.00 0.00 54 1018.9
20260906110009 16 303 9.7 24.1 0.00 0.00 0.00 54 1019.1
20260906104510 16 290 17.7 29.0 0.00 0.00 0.00 54 1019.0
20260906103011 16 254 14.5 32.2 0.00 0.00 0.00 54 1018.9
20260906101510 16 275 12.9 20.9 0.00 0.00 0.00 54 1018.8
20260906100011 15 225 6.4 24.1 0.00 0.00 0.00 56 1018.8
20260906094510 15 300 4.8 19.3 0.00 0.00 0.00 58 1018.8
20260906093017 15 246 14.5 24.1 0.00 0.00 0.00 58 1018.6
20260906091502 15 285 22.5 32.2 0.00 0.00 0.00 57 1018.8
20260906090009 15 310 17.7 33.8 0.00 0.00 0.00 57 1018.6
20260906084510 15 255 12.9 27.4 0.00 0.00 0.00 57 1018.4
20260906083010 15 255 9.7 27.4 0.00 0.00 0.00 57 1018.3
20260906081512 15 277 14.5 25.7 0.00 0.00 0.00 57 1018.2
20260906080010 15 275 9.7 20.9 0.00 0.00 0.00 60 1017.9
20260906074510 14 247 9.7 19.3 0.00 0.00 0.00 64 1017.9
20260906073023 13 248 6.4 24.1 0.00 0.00 0.00 66 1017.7
20260906071509 13 217 6.4 11.3 0.00 0.00 0.00 72 1018.0
20260906070009 12 163 4.8 14.5 0.00 0.00 0.00 74 1017.9
20260906064509 11 163 1.6 9.7 0.00 0.00 0.00 78 1017.8
20260906063011 10 161 4.8 11.3 0.00 0.00 0.00 82 1017.9
20260906061510 9 161 9.7 17.7 0.00 0.00 0.00 84 1017.7
20260906060009 8 155 9.7 14.5 0.00 0.00 0.00 88 1017.6
20260906054512 8 171 0.0 3.2 0.00 0.00 0.00 88 1017.4
20260906053009 8 171 0.0 1.6 0.00 0.00 0.00 87 1017.4
20260906051515 8 171 0.0 8.0 0.00 0.00 0.00 86 1017.3
20260906050010 8 171 4.8 8.0 0.00 0.00 0.00 85 1017.4
20260906044510 8 171 4.8 8.0 0.00 0.00 0.00 84 1017.1
20260906043010 8 171 0.0 8.0 0.00 0.00 0.00 84 1016.8
20260906041510 8 182 6.4 9.7 0.00 0.00 0.00 83 1016.6
20260906040010 9 238 0.0 12.9 0.00 0.00 0.00 79 1016.5
20260906034512 9 21 0.0 4.8 0.00 0.00 0.00 83 1016.3
20260906033010 9 21 1.6 6.4 0.00 0.00 0.00 83 1016.2
20260906031511 9 21 3.2 6.4 0.00 0.00 0.00 83 1016.1
20260906030009 10 20 4.8 11.3 0.00 0.00 0.00 80 1015.9
20260906024509 10 18 0.0 3.2 0.00 0.00 0.00 78 1015.9
20260906023009 11 17 0.0 12.9 0.00 0.00 0.00 73 1015.5
20260906021510 11 35 3.2 14.5 0.00 0.00 0.00 72 1015.3
20260906020009 11 296 1.6 12.9 0.00 0.00 0.00 74 1015.4
20260906014510 10 306 3.2 8.0 0.00 0.00 0.00 78 1015.3
20260906013009 11 300 0.0 8.0 0.00 0.00 0.00 77 1015.2
20260906011510 11 5 6.4 14.5 0.00 0.00 0.00 70 1015.1
20260906010010 11 295 1.6 11.3 0.00 0.00 0.00 71 1015.0
20260906004510 11 315 4.8 19.3 0.00 0.00 0.00 70 1015.0
20260906003010 11 236 1.6 6.4 0.00 0.00 0.00 71 1015.0
20260906001511 11 292 1.6 8.0 0.00 0.00 0.00 71 1014.9
20260906000010 11 288 1.6 8.0 0.00 0.03 0.00 71 1014.4
20260905234508 12 288 4.8 11.3 0.00 0.03 0.00 71 1014.3
20260905233012 12 277 1.6 12.9 0.00 0.03 0.00 73 1014.1
20260905231513 12 288 3.2 12.9 0.00 0.03 0.00 73 1013.7
20260905230013 12 284 4.8 17.7 0.00 0.03 0.00 71 1013.4
20260905224509 12 286 4.8 12.9 0.00 0.03 0.00 71 1013.3
20260905223009 12 326 3.2 12.9 0.00 0.03 0.00 71 1013.0
20260905221513 12 290 8.0 16.1 0.00 0.03 0.00 71 1012.6
20260905220009 12 309 9.7 20.9 0.00 0.03 0.03 71 1012.4
20260905214509 12 293 4.8 16.1 0.00 0.03 0.03 71 1012.3
20260905213010 12 286 4.8 11.3 0.00 0.03 0.03 71 1012.2